Skip Page Navigation
NASA JPL Caltech
NASA Logo - Jet Propulsion Laboratory + View the NASA Portal
+ Center for Near-Earth Object Studies
JPL Home Earth Solar System Stars & Galaxies Technology
JPL Solar System Dynamics
BODIES ORBITS EPHEMERIDES TOOLS PHYSICAL DATA DISCOVERY FAQ SITE MAP
IMPORTANT: The SSD Announcement email list is now available. Major changes are coming in the near future, including possible hostname and/or URL changes. To be notified of such changes, subscribe to this email list.

Please visit this page for more details.


JPL Small-Body Database Browser
Search: [ help ]  
46606 (1993 LK2)
Classification: Main-belt Asteroid          SPK-ID: 2046606
Ephemeris | Orbit Diagram | Orbital Elements | Mission Design | Physical Parameters | Discovery Circumstances ]

[ show orbit diagram ]
Orbital Elements at Epoch 2458600.5 (2019-Apr-27.0) TDB
Reference: JPL 17 (heliocentric ecliptic J2000)
 Element Value Uncertainty (1-sigma)   Units 
e .1836754244101363 3.0743e-08  
a 2.527485392466871 1.4241e-08 au
q 2.063248440315099 7.9234e-08 au
i 6.742031865662215 5.7947e-06 deg
node 101.8968588692489 3.2424e-05 deg
peri 312.0989622228018 3.7369e-05 deg
M 341.5122343832754 1.919e-05 deg
tp 2458675.872571798051
(2019-Jul-11.37257180)
7.8419e-05 TDB
period 1467.680108555249
4.02
1.2404e-05
3.396e-08
d
yr
n .2452850576236097 2.0731e-09 deg/d
Q 2.991722344618644 1.6857e-08 au
  Orbit Determination Parameters
   # obs. used (total)      781  
   data-arc span      9205 days (25.20 yr)  
   first obs. used      1993-05-26  
   last obs. used      2018-08-08  
   planetary ephem.      DE431  
   SB-pert. ephem.      SB431-N16  
   condition code      0  
   norm. resid. RMS      .53848  
   source      ORB  
   producer      Otto Matic  
   solution date      2019-Jul-13 02:38:28  

Additional Information
 Earth MOID = 1.08167 au 
 Jupiter MOID = 2.37007 au 
 T_jup = 3.419 
[ show covariance matrix ]

Ephemeris | Orbit Diagram | Orbital Elements | Mission Design | Physical Parameters | Discovery Circumstances ]

Physical Parameter Table
Parameter Symbol Value Units Sigma Reference Notes
absolute magnitude H 15.4   n/a MPO452807  

46606 (1993 LK2)          Discovered 1993-Jun-13 by Spacewatch at Kitt Peak
Reference: 20020921/Numbers.arcLast Updated: 2004-04-19

Alternate Designations
 1993 LK2 = 2000 BM35 
Ephemeris | Orbit Diagram | Orbital Elements | Mission Design | Physical Parameters | Discovery Circumstances ]
ABOUT SSD CREDITS/AWARDS PRIVACY/COPYRIGHT GLOSSARY LINKS
FirstGov
(server date/time)  
NASA Home Page
Site Manager:   Ryan S. Park
Webmaster  Alan B. Chamberlin